Time,TemperatureF,DewpointF,PressureIn,WindDirection,WindDirectionDegrees,WindSpeedMPH,WindSpeedGustMPH,Humidity,HourlyPrecipIn,Conditions,Clouds,dailyrainin,SoftwareType,DateUTC
2013-07-18 00:01:00,75.0,72.0,30.21,North,0,0.0,-999.0,88,-99.99,,,-99.99,,2013-07-18 05:01:00,
2013-07-18 00:11:00,75.0,72.0,30.21,North,0,0.0,-999.0,88,-99.99,,,-99.99,,2013-07-18 05:11:00,
2013-07-18 00:21:00,75.0,72.0,30.21,North,0,0.0,-999.0,88,-99.99,,,-99.99,,2013-07-18 05:21:00,
2013-07-18 00:32:00,75.0,72.0,30.21,North,0,0.0,-999.0,88,-99.99,,,-99.99,,2013-07-18 05:32:00,
2013-07-18 00:42:00,75.0,72.0,30.21,North,0,6.0,-999.0,88,-99.99,,,-99.99,,2013-07-18 05:42:00,
2013-07-18 00:52:00,73.0,72.0,30.21,North,0,0.0,-999.0,94,-99.99,,,-99.99,,2013-07-18 05:52:00,
2013-07-18 01:01:00,73.0,72.0,30.21,North,0,0.0,-999.0,94,-99.99,,,-99.99,,2013-07-18 06:01:00,
2013-07-18 01:11:00,73.0,72.0,30.21,North,0,0.0,-999.0,94,-99.99,,,-99.99,,2013-07-18 06:11:00,
2013-07-18 01:22:00,73.0,72.0,30.21,North,0,0.0,-999.0,94,-99.99,,,-99.99,,2013-07-18 06:22:00,
2013-07-18 01:32:00,73.0,72.0,30.21,North,0,3.0,-999.0,94,-99.99,,,-99.99,,2013-07-18 06:32:00,
2013-07-18 01:43:00,73.0,72.0,30.21,North,0,0.0,-999.0,94,-99.99,,,-99.99,,2013-07-18 06:43:00,
2013-07-18 01:52:00,73.0,72.0,30.21,North,0,0.0,-999.0,94,-99.99,,,-99.99,,2013-07-18 06:52:00,
2013-07-18 02:01:00,73.0,72.0,30.21,North,0,0.0,-999.0,94,-99.99,,,-99.99,,2013-07-18 07:01:00,
2013-07-18 02:11:00,73.0,72.0,30.20,North,0,0.0,-999.0,94,-99.99,,,-99.99,,2013-07-18 07:11:00,
2013-07-18 02:22:00,73.0,72.0,30.20,North,0,0.0,-999.0,94,-99.99,,,-99.99,,2013-07-18 07:22:00,
2013-07-18 02:32:00,72.0,72.0,30.20,North,0,0.0,-999.0,100,-99.99,,,-99.99,,2013-07-18 07:32:00,
2013-07-18 02:42:00,72.0,72.0,30.20,North,0,0.0,-999.0,100,-99.99,,,-99.99,,2013-07-18 07:42:00,
2013-07-18 02:52:00,72.0,72.0,30.20,North,0,0.0,-999.0,100,-99.99,,,-99.99,,2013-07-18 07:52:00,
2013-07-18 03:01:00,72.0,72.0,30.20,North,0,0.0,-999.0,100,-99.99,,,-99.99,,2013-07-18 08:01:00,
2013-07-18 03:11:00,72.0,72.0,30.19,SSE,154,3.0,-999.0,100,-99.99,,,-99.99,,2013-07-18 08:11:00,
2013-07-18 03:21:00,72.0,72.0,30.19,SSW,205,3.0,-999.0,100,-99.99,,,-99.99,,2013-07-18 08:21:00,
2013-07-18 03:32:00,72.0,72.0,30.19,North,0,0.0,-999.0,100,-99.99,,,-99.99,,2013-07-18 08:32:00,
2013-07-18 03:42:00,72.0,72.0,30.19,SW,225,3.0,-999.0,100,-99.99,,,-99.99,,2013-07-18 08:42:00,
2013-07-18 03:51:00,72.0,72.0,30.18,North,0,0.0,-999.0,100,-99.99,,,-99.99,,2013-07-18 08:51:00,
2013-07-18 04:01:00,72.0,72.0,30.18,North,0,0.0,-999.0,100,-99.99,,,-99.99,,2013-07-18 09:01:00,
2013-07-18 04:11:00,72.0,72.0,30.17,North,0,6.0,-999.0,100,-99.99,,,-99.99,,2013-07-18 09:11:00,
2013-07-18 04:21:00,72.0,72.0,30.17,North,0,0.0,-999.0,100,-99.99,,,-99.99,,2013-07-18 09:21:00,
2013-07-18 04:31:00,72.0,72.0,30.17,SW,225,5.0,-999.0,100,-99.99,,,-99.99,,2013-07-18 09:31:00,
2013-07-18 04:41:00,72.0,72.0,30.16,North,0,0.0,-999.0,100,-99.99,,,-99.99,,2013-07-18 09:41:00,
2013-07-18 04:51:00,72.0,72.0,30.16,North,0,0.0,-999.0,100,-99.99,,,-99.99,,2013-07-18 09:51:00,
2013-07-18 05:01:00,72.0,72.0,30.16,North,0,6.0,-999.0,100,-99.99,,,-99.99,,2013-07-18 10:01:00,
2013-07-18 05:11:00,72.0,72.0,30.16,North,0,0.0,-999.0,100,-99.99,,,-99.99,,2013-07-18 10:11:00,
2013-07-18 05:21:00,72.0,72.0,30.16,North,0,0.0,-999.0,100,-99.99,,,-99.99,,2013-07-18 10:21:00,
2013-07-18 05:32:00,72.0,72.0,30.16,North,0,0.0,-999.0,100,-99.99,,,-99.99,,2013-07-18 10:32:00,
2013-07-18 05:42:00,72.0,72.0,30.16,North,0,0.0,-999.0,100,-99.99,,,-99.99,,2013-07-18 10:42:00,
2013-07-18 05:52:00,72.0,72.0,30.16,North,0,0.0,-999.0,100,-99.99,,,-99.99,,2013-07-18 10:52:00,
2013-07-18 06:01:00,72.0,72.0,30.15,North,0,0.0,-999.0,100,-99.99,,,-99.99,,2013-07-18 11:01:00,
2013-07-18 06:11:00,72.0,72.0,30.15,North,0,0.0,-999.0,100,-99.99,,,-99.99,,2013-07-18 11:11:00,
2013-07-18 06:22:00,72.0,72.0,30.15,North,0,0.0,-999.0,100,-99.99,,,-99.99,,2013-07-18 11:22:00,
2013-07-18 06:32:00,72.0,72.0,30.15,North,0,0.0,-999.0,100,-99.99,,,-99.99,,2013-07-18 11:32:00,
2013-07-18 06:43:00,72.0,72.0,30.15,North,0,0.0,-999.0,100,-99.99,,,-99.99,,2013-07-18 11:43:00,
2013-07-18 06:52:00,72.0,72.0,30.14,SSW,205,3.0,-999.0,100,-99.99,,,-99.99,,2013-07-18 11:52:00,
2013-07-18 07:01:00,72.0,72.0,30.14,North,0,0.0,-999.0,100,-99.99,,,-99.99,,2013-07-18 12:01:00,
2013-07-18 07:11:00,72.0,72.0,30.14,North,0,0.0,-999.0,100,-99.99,,,-99.99,,2013-07-18 12:11:00,
2013-07-18 07:22:00,72.0,72.0,30.14,North,0,0.0,-999.0,100,-99.99,,,-99.99,,2013-07-18 12:22:00,
2013-07-18 07:32:00,72.0,72.0,30.14,North,0,5.0,-999.0,100,-99.99,,,-99.99,,2013-07-18 12:32:00,
2013-07-18 07:42:00,72.0,72.0,30.14,SW,225,8.0,-999.0,100,-99.99,,,-99.99,,2013-07-18 12:42:00,
2013-07-18 07:52:00,72.0,72.0,30.14,North,0,5.0,-999.0,100,-99.99,,,-99.99,,2013-07-18 12:52:00,
2013-07-18 08:01:00,73.0,72.0,30.13,WSW,250,2.0,-999.0,94,-99.99,,,-99.99,,2013-07-18 13:01:00,
2013-07-18 08:11:00,73.0,72.0,30.13,North,0,0.0,-999.0,94,-99.99,,,-99.99,,2013-07-18 13:11:00,
2013-07-18 08:22:00,73.0,73.0,30.13,SW,225,5.0,-999.0,100,-99.99,,,-99.99,,2013-07-18 13:22:00,
2013-07-18 08:32:00,73.0,72.0,30.13,SW,225,9.0,-999.0,94,-99.99,,,-99.99,,2013-07-18 13:32:00,
2013-07-18 08:43:00,75.0,73.0,30.13,North,0,3.0,-999.0,94,-99.99,,,-99.99,,2013-07-18 13:43:00,
2013-07-18 09:02:00,75.0,73.0,30.12,SSW,205,2.0,-999.0,94,-99.99,,,-99.99,,2013-07-18 14:02:00,
2013-07-18 09:11:00,77.0,73.0,30.12,SSW,204,9.0,-999.0,88,-99.99,,,-99.99,,2013-07-18 14:11:00,
2013-07-18 09:22:00,77.0,73.0,30.12,SW,225,9.0,-999.0,88,-99.99,,,-99.99,,2013-07-18 14:22:00,
2013-07-18 09:32:00,79.0,73.0,30.11,SW,225,7.0,-999.0,83,-99.99,,,-99.99,,2013-07-18 14:32:00,
2013-07-18 09:43:00,79.0,73.0,30.11,SSW,205,12.0,-999.0,83,-99.99,,,-99.99,,2013-07-18 14:43:00,
2013-07-18 09:52:00,79.0,72.0,30.11,WSW,249,9.0,-999.0,78,-99.99,,,-99.99,,2013-07-18 14:52:00,
2013-07-18 10:01:00,81.0,73.0,30.11,WNW,294,5.0,-999.0,78,-99.99,,,-99.99,,2013-07-18 15:01:00,
2013-07-18 10:11:00,81.0,72.0,30.10,WNW,294,6.0,-999.0,74,-99.99,,,-99.99,,2013-07-18 15:11:00,
2013-07-18 10:22:00,81.0,72.0,30.10,SW,225,9.0,-999.0,74,-99.99,,,-99.99,,2013-07-18 15:22:00,
2013-07-18 10:32:00,81.0,72.0,30.09,North,0,0.0,-999.0,74,-99.99,,,-99.99,,2013-07-18 15:32:00,
2013-07-18 10:42:00,81.0,72.0,30.09,WSW,250,6.0,-999.0,74,-99.99,,,-99.99,,2013-07-18 15:42:00,
2013-07-18 10:53:00,82.0,72.0,30.09,SSW,205,8.0,-999.0,69,-99.99,,,-99.99,,2013-07-18 15:53:00,
2013-07-18 11:01:00,82.0,72.0,30.09,SSW,205,13.0,-999.0,69,-99.99,,,-99.99,,2013-07-18 16:01:00,
2013-07-18 11:11:00,82.0,72.0,30.09,SW,225,6.0,-999.0,69,-99.99,,,-99.99,,2013-07-18 16:11:00,
2013-07-18 11:22:00,82.0,70.0,30.09,SW,225,7.0,-999.0,65,-99.99,,,-99.99,,2013-07-18 16:22:00,
2013-07-18 11:32:00,82.0,72.0,30.08,SSW,204,9.0,-999.0,69,-99.99,,,-99.99,,2013-07-18 16:32:00,
2013-07-18 11:42:00,82.0,72.0,30.08,SW,225,12.0,-999.0,69,-99.99,,,-99.99,,2013-07-18 16:42:00,
2013-07-18 12:02:00,84.0,72.0,30.08,SW,225,8.0,-999.0,65,-99.99,,,-99.99,,2013-07-18 17:02:00,
2013-07-18 12:11:00,82.0,72.0,30.07,SW,225,15.0,-999.0,69,-99.99,,,-99.99,,2013-07-18 17:11:00,
2013-07-18 12:22:00,84.0,72.0,30.07,WSW,250,8.0,-999.0,65,-99.99,,,-99.99,,2013-07-18 17:22:00,
2013-07-18 12:33:00,84.0,72.0,30.07,SW,225,16.0,-999.0,65,-99.99,,,-99.99,,2013-07-18 17:33:00,
2013-07-18 12:43:00,84.0,72.0,30.07,SSW,205,8.0,-999.0,65,-99.99,,,-99.99,,2013-07-18 17:43:00,
2013-07-18 12:52:00,84.0,72.0,30.06,SW,225,13.0,-999.0,65,-99.99,,,-99.99,,2013-07-18 17:52:00,
2013-07-18 13:01:00,84.0,72.0,30.06,SSW,205,16.0,-999.0,65,-99.99,,,-99.99,,2013-07-18 18:01:00,
2013-07-18 13:11:00,84.0,72.0,30.05,SW,225,10.0,-999.0,65,-99.99,,,-99.99,,2013-07-18 18:11:00,
2013-07-18 13:22:00,84.0,72.0,30.05,SSW,204,10.0,-999.0,65,-99.99,,,-99.99,,2013-07-18 18:22:00,
2013-07-18 13:32:00,84.0,72.0,30.05,SW,225,7.0,-999.0,65,-99.99,,,-99.99,,2013-07-18 18:32:00,
2013-07-18 13:43:00,86.0,72.0,30.04,SSE,155,10.0,-999.0,62,-99.99,,,-99.99,,2013-07-18 18:43:00,
2013-07-18 13:52:00,84.0,70.0,30.04,North,0,12.0,-999.0,62,-99.99,,,-99.99,,2013-07-18 18:52:00,
2013-07-18 14:01:00,86.0,70.0,30.03,SSW,205,7.0,-999.0,58,-99.99,,,-99.99,,2013-07-18 19:01:00,
2013-07-18 14:22:00,86.0,70.0,30.03,WSW,250,12.0,-999.0,58,-99.99,,,-99.99,,2013-07-18 19:22:00,
2013-07-18 14:32:00,86.0,70.0,30.03,West,269,6.0,-999.0,58,-99.99,,,-99.99,,2013-07-18 19:32:00,
2013-07-18 14:43:00,86.0,70.0,30.02,SSW,205,12.0,-999.0,58,-99.99,,,-99.99,,2013-07-18 19:43:00,
2013-07-18 14:53:00,86.0,70.0,30.02,WSW,249,5.0,-999.0,58,-99.99,,,-99.99,,2013-07-18 19:53:00,
2013-07-18 15:01:00,88.0,70.0,30.02,SSW,204,10.0,-999.0,55,-99.99,,,-99.99,,2013-07-18 20:01:00,
2013-07-18 15:11:00,88.0,70.0,30.02,North,0,14.0,-999.0,55,-99.99,,,-99.99,,2013-07-18 20:11:00,
2013-07-18 15:22:00,88.0,70.0,30.01,SSW,205,12.0,-999.0,55,-99.99,,,-99.99,,2013-07-18 20:22:00,
2013-07-18 15:32:00,88.0,70.0,30.01,SW,225,16.0,-999.0,55,-99.99,,,-99.99,,2013-07-18 20:32:00,
2013-07-18 15:43:00,88.0,70.0,30.01,SSW,204,10.0,-999.0,55,-99.99,,,-99.99,,2013-07-18 20:43:00,
2013-07-18 15:52:00,88.0,68.0,30.00,SSE,155,9.0,-999.0,51,-99.99,,,-99.99,,2013-07-18 20:52:00,
2013-07-18 16:01:00,88.0,70.0,30.00,SW,225,10.0,-999.0,55,-99.99,,,-99.99,,2013-07-18 21:01:00,
2013-07-18 16:11:00,88.0,70.0,29.99,SSW,205,3.0,-999.0,55,-99.99,,,-99.99,,2013-07-18 21:11:00,
2013-07-18 16:22:00,88.0,70.0,29.99,North,0,13.0,-999.0,55,-99.99,,,-99.99,,2013-07-18 21:22:00,
2013-07-18 16:32:00,88.0,70.0,29.98,SW,225,14.0,-999.0,55,-99.99,,,-99.99,,2013-07-18 21:32:00,
2013-07-18 16:43:00,88.0,70.0,29.98,SSW,205,12.0,-999.0,55,-99.99,,,-99.99,,2013-07-18 21:43:00,
2013-07-18 16:52:00,88.0,70.0,29.98,SSW,204,9.0,-999.0,55,-99.99,,,-99.99,,2013-07-18 21:52:00,
2013-07-18 17:01:00,88.0,70.0,29.98,West,269,10.0,-999.0,55,-99.99,,,-99.99,,2013-07-18 22:01:00,
2013-07-18 17:11:00,88.0,70.0,29.98,SSW,204,9.0,-999.0,55,-99.99,,,-99.99,,2013-07-18 22:11:00,
2013-07-18 17:22:00,88.0,70.0,29.98,WSW,250,7.0,-999.0,55,-99.99,,,-99.99,,2013-07-18 22:22:00,
2013-07-18 17:32:00,88.0,70.0,29.97,North,0,12.0,-999.0,55,-99.99,,,-99.99,,2013-07-18 22:32:00,
2013-07-18 17:43:00,88.0,72.0,29.97,SW,225,7.0,-999.0,58,-99.99,,,-99.99,,2013-07-18 22:43:00,
2013-07-18 17:53:00,88.0,72.0,29.96,WSW,250,7.0,-999.0,58,-99.99,,,-99.99,,2013-07-18 22:53:00,
2013-07-18 18:02:00,88.0,72.0,29.96,WSW,250,12.0,-999.0,58,-99.99,,,-99.99,,2013-07-18 23:02:00,
2013-07-18 18:11:00,88.0,72.0,29.96,SW,225,9.0,-999.0,58,-99.99,,,-99.99,,2013-07-18 23:11:00,
2013-07-18 18:22:00,88.0,72.0,29.95,North,0,8.0,-999.0,58,-99.99,,,-99.99,,2013-07-18 23:22:00,
2013-07-18 18:32:00,88.0,70.0,29.95,SW,225,10.0,-999.0,55,-99.99,,,-99.99,,2013-07-18 23:32:00,
2013-07-18 18:42:00,88.0,72.0,29.94,SSW,205,12.0,-999.0,58,-99.99,,,-99.99,,2013-07-18 23:42:00,
2013-07-18 18:52:00,88.0,72.0,29.93,North,0,7.0,-999.0,58,-99.99,,,-99.99,,2013-07-18 23:52:00,
2013-07-18 19:01:00,88.0,72.0,29.93,SSW,205,13.0,-999.0,58,-99.99,,,-99.99,,2013-07-19 00:01:00,
2013-07-18 19:11:00,86.0,72.0,29.93,SSW,204,9.0,-999.0,62,-99.99,,,-99.99,,2013-07-19 00:11:00,
2013-07-18 19:22:00,86.0,72.0,29.93,SW,225,12.0,-999.0,62,-99.99,,,-99.99,,2013-07-19 00:22:00,
2013-07-18 19:32:00,86.0,72.0,29.93,SSW,205,12.0,-999.0,62,-99.99,,,-99.99,,2013-07-19 00:32:00,
2013-07-18 19:43:00,86.0,72.0,29.93,SW,225,7.0,-999.0,62,-99.99,,,-99.99,,2013-07-19 00:43:00,
2013-07-18 19:52:00,86.0,72.0,29.93,SSW,204,6.0,-999.0,62,-99.99,,,-99.99,,2013-07-19 00:52:00,
2013-07-18 20:01:00,86.0,73.0,29.93,SW,225,7.0,-999.0,66,-99.99,,,-99.99,,2013-07-19 01:01:00,
2013-07-18 20:11:00,84.0,72.0,29.93,SW,225,6.0,-999.0,65,-99.99,,,-99.99,,2013-07-19 01:11:00,
2013-07-18 20:22:00,84.0,72.0,29.93,SW,225,7.0,-999.0,65,-99.99,,,-99.99,,2013-07-19 01:22:00,
2013-07-18 20:32:00,84.0,73.0,29.92,North,0,7.0,-999.0,70,-99.99,,,-99.99,,2013-07-19 01:32:00,
2013-07-18 20:42:00,84.0,72.0,29.92,North,0,6.0,-999.0,65,-99.99,,,-99.99,,2013-07-19 01:42:00,
2013-07-18 20:52:00,82.0,72.0,29.92,SW,225,8.0,-999.0,69,-99.99,,,-99.99,,2013-07-19 01:52:00,
2013-07-18 21:01:00,82.0,72.0,29.92,SW,225,5.0,-999.0,69,-99.99,,,-99.99,,2013-07-19 02:01:00,
2013-07-18 21:11:00,82.0,73.0,29.92,West,269,2.0,-999.0,74,-99.99,,,-99.99,,2013-07-19 02:11:00,
2013-07-18 21:22:00,82.0,72.0,29.92,SW,225,7.0,-999.0,69,-99.99,,,-99.99,,2013-07-19 02:22:00,
2013-07-18 21:32:00,82.0,73.0,29.92,SW,225,8.0,-999.0,74,-99.99,,,-99.99,,2013-07-19 02:32:00,
2013-07-18 21:42:00,81.0,72.0,29.92,SSW,205,8.0,-999.0,74,-99.99,,,-99.99,,2013-07-19 02:42:00,
2013-07-18 21:52:00,81.0,73.0,29.92,North,0,0.0,-999.0,78,-99.99,,,-99.99,,2013-07-19 02:52:00,
2013-07-18 22:01:00,81.0,73.0,29.92,SW,225,6.0,-999.0,78,-99.99,,,-99.99,,2013-07-19 03:01:00,
2013-07-18 22:11:00,81.0,73.0,29.92,WSW,249,5.0,-999.0,78,-99.99,,,-99.99,,2013-07-19 03:11:00,
2013-07-18 22:22:00,81.0,73.0,29.92,SW,225,6.0,-999.0,78,-99.99,,,-99.99,,2013-07-19 03:22:00,
2013-07-18 22:32:00,81.0,73.0,29.93,SW,225,5.0,-999.0,78,-99.99,,,-99.99,,2013-07-19 03:32:00,
2013-07-18 22:42:00,79.0,73.0,29.93,SSW,205,7.0,-999.0,83,-99.99,,,-99.99,,2013-07-19 03:42:00,
2013-07-18 22:52:00,79.0,73.0,29.93,SSW,205,7.0,-999.0,83,-99.99,,,-99.99,,2013-07-19 03:52:00,
2013-07-18 23:02:00,79.0,73.0,29.93,North,0,6.0,-999.0,83,-99.99,,,-99.99,,2013-07-19 04:02:00,
2013-07-18 23:12:00,79.0,73.0,29.93,WSW,250,8.0,-999.0,83,-99.99,,,-99.99,,2013-07-19 04:12:00,
2013-07-18 23:22:00,79.0,73.0,29.93,WSW,249,3.0,-999.0,83,-99.99,,,-99.99,,2013-07-19 04:22:00,
2013-07-18 23:33:00,79.0,73.0,29.93,West,269,6.0,-999.0,83,-99.99,,,-99.99,,2013-07-19 04:33:00,
2013-07-18 23:43:00,79.0,73.0,29.93,North,0,5.0,-999.0,83,-99.99,,,-99.99,,2013-07-19 04:43:00,
2013-07-18 23:52:00,79.0,73.0,29.93,WSW,250,6.0,-999.0,83,-99.99,,,-99.99,,2013-07-19 04:52:00,